NOAA 17 DEB, 48758

Orbit data source: Space-Track

NOAA 17 DEB, 48758 is space debris in SSO originally from a launch on Mon, 24 Jun 2002 UTC launched from the Air Force Western Test Range (AFWTR). Debris objects in space refer to the collection of defunct objects orbiting the Earth. Examples of debris include non-operational satellites, rocket bodies, and fragments generated from explosions, collisions, or faulty payload assembly.

Loading next visibility...
Identifier
48758, 2002-032CT
Orbit
SSO
Country
Flag of USUS
Related business
Manufacturer
Unknown
Mission
Spacecraft
Bus & Motor
Unknown
Mass
Unknown
Launch date (UTC)
2002-06-24 (24 years ago)
Launch vehicle
Unknown
Launch site
Air Force Western Test Range (AFWTR)
Object type
Payload
Rocket body
Debris
Shape & HBR
Unknown shape, 0.1 m
Radar Cross Section
Medium (>0.1 m² and <1 m²)

Expand to show TLE details & history
Last TLE update: 3 days ago

TLE from 3 days ago
0 NOAA 17 DEB
1 48758U 02032CT  26170.42742240  .00006393  00000-0  14103-2 0  9992
2 48758  98.7408 161.8272 0004486 195.7144 164.3914 14.57704715273562
Epoch: 2026-06-19T10:15Z
TLE epoch observation values (Epoch: 2026-06-19T10:15:29.295Z)
Latitude
-0.00007°
Longitude
100.2986°
Altitude
706.619 km
Speed
7.501 km/s
True Right ascension
10h 47m 18s
True Declination
0° 00' 00"
Sunlit
Object was in daylight at epoch
Visualization orbit readout
Latitude
Unknown
Longitude
Unknown
Altitude
Unknown
Speed
Unknown
Apparent Right ascension
Unknown
Apparent Declination
Unknown
Sunlit
N/A
Visualization observer readout
Local Sidereal Time
21:38:55
Azimuth
Unknown
Elevation
Unknown
Doppler factor
Unknown
Orbital elements
Apogee altitude
700.879 km
Perigee altitude
694.531 km
Semi-major axis
7,075.842 km
Eccentricity
0.00045
Inclination
98.7408°
RAAN
161.8272°
Arg. of periapsis
195.7144°
True anomaly
164.40522°
Mean anomaly
164.3914°
Eccentric anomaly
164.39831°
Mean motion
3.6465 °/min
Orbital period
98.72 mins
BSTAR
0.0014103
Loading maneuver chart data...
Computing Atmospheric mass density...

Documentation

Showing up to 5 results
|